sat.trackr.live / text

‹ back to catalog

MISR-C-2

NORAD 68633 · 2026-074G

PAYLOAD ACTIVE UNKNOWN

§ Identity

Operator
Country
US
Launch date
2026-04-07
Launch site
AFWTR
Launch vehicle
Mass (kg)
RCS (m²)

External: N2YO · Heavens-Above · Gunter

§ Orbital elements

Epoch: 2026-05-24T17:17:23.891424Z

Period
94.39 min
Inclination
60.0220°
Eccentricity
0.0025103
Mean motion
15.25628917 rev/d
Perigee alt
471.7 km
Apogee alt
506.1 km
Semi-major
6,867.0 km
B*
3.2995e-4
RAAN
267.9022°
Arg perigee
15.4028°
Mean anomaly
344.7812°
Rev number
720

§ Raw data

MISR-C-21 68633U 26074G   26144.72041541  .00008248  00000+0  32995-3 0  99982 68633  60.0220 267.9022 0025103  15.4028 344.7812 15.25628917  7201

JSON: /api/v1/satellites/68633 · /tle

For live sub-satellite position, see the globe view (requires WebGL).

§ Visibility from observer

Set your observer location to see the next 7 days of passes ≥ 10°. The values pass through the URL so the page stays shareable.

No JS? Fill the form by hand. The geolocation button needs JavaScript.